#timestamp,LO_Frequency,Hit,StdDev 
1678798815.1,286046999.7,N
1678798835.9,286047002.4,N
1678798855.7,286046999.8,N
1678798875.6,286047002.3,N
1678798895.4,286047000.8,N
1678798915.2,286046998.3,N
1678798935.1,286046998.5,N
1678798936.0,286046998.5,N
1678798955.8,286046998.3,N
1678798975.6,286047001.0,N
1678798995.5,286046998.1,N
1678799015.3,286046998.3,N
1678799035.2,286047000.8,N
1678799055.9,286047000.7,N
1678799075.7,286047000.6,N
1678799095.6,286047000.2,N
1678799115.4,286046999.9,N
1678799135.2,286047000.1,N
1678799155.1,286047002.4,N
1678799156.0,286047002.4,N
1678799175.8,286047002.4,N
1678799195.7,286047002.7,N
1678799215.5,286047002.8,N
1678799235.3,286046999.7,N
1678799255.2,286047002.4,N
1678799275.9,286047002.3,N
1678799295.7,286046999.8,N
1678799315.6,286047000.4,N
1678799335.4,286047000.9,N
1678799355.3,286047002.8,N
1678799375.1,286047000.7,N
1678799376.0,286047000.7,N
1678799395.8,286047000.8,N
1678799415.7,286046998.5,N
1678799435.5,286046998.5,N
1678799455.3,286046999.4,N
1678799475.2,286046999.0,N
1678799495.0,286046996.6,N
1678799495.9,286046996.6,N
1678799515.8,286046996.5,N
1678799535.6,286046996.6,N
1678799555.4,286046996.7,N
1678799575.3,286046997.3,N
1678799595.1,286046997.7,N
1678799615.8,286046995.7,N
1678799635.7,286046995.7,N
1678799655.5,286046995.9,N
1678799675.4,286046997.6,N
1678799695.2,286046995.2,N
1678799715.0,286046995.1,N
1678799715.9,286046995.1,N
1678799735.8,286046996.3,N
1678799755.6,286046995.9,N
1678799775.5,286046994.2,N
1678799795.3,286046993.6,N
1678799815.1,286046991.7,Y
1678799835.9,286046995.8,P
1678799855.7,286046995.7,P
1678799875.5,286046995.6,P
1678799895.4,286046995.0,Y
1678799915.2,286047000.6,P
1678799935.1,286047000.4,N
1678799936.0,286047000.4,N
1678799955.8,286046999.0,N
1678799975.6,286046999.3,N
1678799995.5,286046998.4,N
1678800015.3,286046999.2,N
1678800035.1,286046996.6,N
1678800055.9,286046996.7,N
1678800075.7,286046997.0,N
1678800095.6,286046997.1,N
1678800115.4,286046998.0,N
1678800135.2,286046996.4,N
1678800155.1,286046993.4,Y
1678800156.0,286046993.4,P
1678800175.8,286046996.7,N
1678800195.7,286046999.4,N
1678800215.5,286046998.9,N
1678800235.3,286046996.5,N
1678800255.2,286046999.5,N
1678800275.0,286046996.9,N
1678800275.9,286046996.9,N
1678800295.8,286046996.6,N
1678800315.6,286046999.5,N
1678800335.4,286046999.0,N
1678800355.3,286046999.6,N
1678800375.1,286046998.9,N
1678800376.0,286046998.9,N
1678800395.8,286046999.0,N
1678800415.7,286046997.8,N
1678800435.5,286046997.9,N
1678800455.4,286046997.4,N
1678800475.2,286046998.0,N
1678800495.0,286046997.9,N
1678800495.9,286046997.9,N
1678800515.8,286046997.7,N
1678800535.6,286046995.4,Y
1678800555.5,286046999.4,P
1678800575.3,286046999.0,N
1678800595.1,286046999.6,N
1678800615.9,286046997.3,Y
1678800635.7,286046999.3,P
1678800655.6,286046999.4,P
1678800675.4,286046999.1,P
1678800695.2,286046997.0,Y
1678800715.1,286046999.3,P
1678800716.0,286046999.3,P
1678800735.8,286046998.4,P
1678800755.6,286046999.0,N
1678800775.5,286046998.6,Y
1678800795.3,286046998.5,P
1678800815.2,286046998.8,P
1678800835.9,286046998.2,P
1678800855.7,286047000.6,N
1678800875.6,286047000.9,N
1678800895.4,286046998.4,N
1678800915.2,286047000.9,N
1678800935.1,286047000.4,N
1678800936.0,286047000.4,N
1678800955.8,286047000.5,N
1678800975.7,286046999.8,N
1678800995.5,286047000.6,N
1678801015.3,286047000.7,N
1678801035.2,286046998.7,N
1678801055.0,286046999.1,N
1678801055.9,286046999.1,N
1678801075.8,286046996.5,Y
1678801095.6,286046999.5,P
1678801115.4,286046999.2,P
1678801135.3,286046998.4,P
1678801155.1,286046999.2,N
1678801175.8,286046998.4,Y
1678801195.7,286046998.1,P
1678801215.5,286047000.8,N
1678801235.4,286046998.5,N
1678801255.2,286046998.1,N
1678801275.0,286046998.2,N
1678801275.9,286046998.2,N
1678801295.8,286046998.3,N
1678801315.6,286047001.2,N
1678801335.4,286046998.6,N
1678801355.3,286046999.3,N
1678801375.1,286046999.3,N
1678801395.9,286046999.1,N
1678801415.7,286046998.7,N
1678801435.5,286046998.1,N
1678801455.4,286046998.8,N
1678801475.2,286046999.4,N
1678801495.1,286046999.6,N
1678801496.0,286046999.6,N
1678801515.8,286046999.0,N
1678801535.6,286046999.5,N
1678801555.5,286046999.1,N
1678801575.3,286046998.4,N
1678801595.2,286046999.4,N
1678801615.9,286046999.5,N
1678801635.7,286046998.7,N
1678801655.6,286046996.7,Y
1678801675.4,286046999.5,P
1678801695.2,286046999.1,P
1678801715.1,286046999.5,N
1678801716.0,286046999.5,N
1678801735.8,286047000.6,N
1678801755.7,286046998.3,Y
1678801775.5,286047000.2,P
1678801795.3,286047000.8,N
1678801815.2,286047000.1,N
1678801835.0,286047000.9,N
1678801835.9,286047000.9,N
1678801855.8,286047000.2,N
1678801875.6,286046999.9,N
1678801895.4,286047000.1,N
1678801915.3,286047000.0,N
1678801935.1,286047001.0,N
1678801955.8,286047000.9,N
1678801975.7,286046999.0,N
1678801995.5,286047001.1,N
1678802015.4,286047000.6,N
1678802035.2,286046998.8,N
1678802055.0,286046998.6,N
1678802055.9,286046998.6,N
1678802075.8,286046998.8,N
1678802095.6,286046998.5,N
1678802115.5,286047000.6,N
1678802135.3,286047000.0,N
1678802155.1,286047001.0,N
1678802175.9,286046999.9,N
1678802195.7,286047000.5,N
1678802215.5,286047000.3,N
1678802235.4,286046998.3,N
1678802255.2,286046998.8,N
1678802275.1,286046999.0,N
1678802276.0,286046999.0,N
1678802295.8,286046996.9,Y
1678802315.6,286046999.4,P
1678802335.5,286046999.0,P
1678802355.3,286046998.7,P
1678802375.1,286046999.3,N
1678802395.9,286046999.0,N
